Location: SFA Observatory
(31.7598°N, 94.6613°W)
Time: 08:59:33
(UTC-05:00)

Tiangong 2 - Visible Passes

Search period start: 24 April 2018 00:00
Search period end: 04 May 2018 00:00
Orbit: 381 x 388 km, 42.8° (Epoch: 23 April)

Date Brightness Start Highest point End Pass type
(mag) Time Alt. Az. Time Alt. Az. Time Alt. Az.
01 May 2.8 06:02:09 10° SSW 06:04:53 27° SE 06:07:38 10° E visible
02 May 3.6 05:04:24 12° SSE 05:05:24 13° SE 05:07:00 10° ESE visible
03 May 1.4 05:39:51 16° SW 05:42:11 60° SE 05:45:19 10° ENE visible
